This demonstration page uses our WeatherBlox Daily Observations layout. Learn more.

Left ArrowRight Arrow

Hourly Observations for April 20, 2022

Temp ( °F °C ) Dew Point ( °F °C ) Humidity (%) Winds ( mph kmh ) Pressure ( in mb ) Visibility ( mi km ) Precip ( " mm )
12:53 am 00:53 Cloudy 49 9.4 44 6.7 83 83 Calm 29.90 1013 10 16 0.00 0.00
1:53 am 01:53 Cloudy 50 10 42 5.6 74 74 NNW 3 6 29.90 1012 10 16 0.00 0.00
2:53 am 02:53 Cloudy 50 10 43 6.1 77 77 Calm 29.89 1012 10 16 0.00 0.00
3:53 am 03:53 Cloudy 50 10 43 6.1 77 77 Calm 29.90 1012 10 16 0.00 0.00
4:53 am 04:53 Mostly Clear 47 8.3 42 5.6 83 83 Calm 29.90 1013 10 16 0.00 0.00
5:53 am 05:53 Cloudy 47 8.3 41 5 80 80 SW 3 6 29.90 1012 10 16 0.00 0.00
6:53 am 06:53 Mostly Cloudy 50 10 42 5.6 74 74 S 7 11 29.89 1012 10 16 0.00 0.00
7:53 am 07:53 Cloudy 51 10.6 42 5.6 71 71 S 12 19 29.88 1012 10 16 0.00 0.00
8:53 am 08:53 Cloudy 51 10.6 43 6.1 74 74 SW 9 15 29.91 1013 10 16 0.00 0.00
9:20 am 09:20 Cloudy 51 10.6 43 6.1 74 74 SW 3 6 29.93 1013 10 16 0.00 0.00
9:53 am 09:53 Cloudy 53 11.7 44 6.7 72 72 S 7 11 29.91 1013 10 16 0.00 0.00
10:26 am 10:26 Cloudy 53 11.7 44 6.7 72 72 S 13 20 29.91 1013 10 16 0.00 0.00
10:53 am 10:53 Cloudy with Light Rain 53 11.7 45 7.2 74 74 S 12 19 29.91 1013 8 13 0.00 0.00
11:53 am 11:53 Cloudy with Light Rain 54 12.2 46 7.8 75 75 SSE 20 31 29.90 1013 10 16 0.00 0.00
12:53 pm 12:53 Cloudy 57 13.9 46 7.8 67 67 S 24 39 29.88 1012 10 16 0.00 0.00
1:53 pm 13:53 Cloudy 57 13.9 46 7.8 67 67 SSE 20 31 29.85 1011 10 16 0.00 0.00
2:53 pm 14:53 Cloudy with Light Rain 57 13.9 48 8.9 72 72 S 24 39 29.83 1010 10 16 0.00 0.00
3:53 pm 15:53 Cloudy 58 14.4 46 7.8 65 65 SSE 17 28 29.80 1009 10 16 0.00 0.00
4:53 pm 16:53 Cloudy 59 15 46 7.8 62 62 S 16 26 29.78 1008 10 16 0.00 0.00
5:53 pm 17:53 Mostly Cloudy 59 15 47 8.3 64 64 SSE 23 37 29.75 1007 10 16 0.00 0.00
6:53 pm 18:53 Cloudy 59 15 47 8.3 64 64 S 23 37 29.73 1007 10 16 0.00 0.00
7:53 pm 19:53 Cloudy 59 15 46 7.8 62 62 S 23 37 29.70 1006 10 16 0.00 0.00
8:53 pm 20:53 Mostly Clear 58 14.4 47 8.3 67 67 S 26 43 29.70 1006 10 16 0.00 0.00
9:53 pm 21:53 Clear 56 13.3 47 8.3 72 72 SSE 32 52 29.70 1006 10 16 0.00 0.00
10:53 pm 22:53 Mostly Clear 56 13.3 48 8.9 75 75 S 29 46 29.69 1006 10 16 0.00 0.00
11:53 pm 23:53 Cloudy 56 13.3 48 8.9 75 75 S 20 31 29.72 1006 10 16 0.00 0.00

Powered by AerisWeather